Flag for Germany Weather past 2 weeks in Kempten, Bavaria, Germany

Now
64 °F

Partly sunny.


Feels Like: 64 °F
Forecast: 44 / 66 °F
Wind: 2 mph from Southwest

Location: Kempten

Current Time: Apr 25, 2015 at 2:46:03 PM

Latest Report: Apr 25, 2015 at 2:00 PM


Visibility: 31 mi

Pressure: 29.84 "Hg

Humidity: 42%

Dew point: 40 °F

Location of KemptenLocation

Historic Weather in Kempten — Graph

°F

Kempten temperature yesterday

Maximum temperature yesterday: 65 °F (at 4:00 PM)
Minimum temperature yesterday: 29 °F (at 7:00 AM)
Average temperature yesterday: 47 °F

Past Weeks' High & Low Weather Summary

 TemperatureHumidityPressure
High72 °F (Apr 15, 3:00 PM)95% (Apr 17, 9:00 PM)30.49 "Hg (Apr 17, 9:00 PM)
Low29 °F (Apr 19, 7:00 AM)17% (Apr 10, 1:00 PM)29.85 "Hg (Apr 25, 1:00 PM)
Average50 °F59%30.18 "Hg
* Reported Apr 10 1:00 PM — Apr 25 1:00 PM, Kempten, Weather by CustomWeather, © 2015

Note: Actual official high and low records may vary slightly from our data, if they occured in-between our weather recording intervals... More about our weather records

Advertising

Kempten weather history for previous 24 hours

 ConditionsComfort  
Time TempWeatherWind HumidityBarometerVisibility
1:00 PM
Sat, Apr 25
64 °FScattered clouds.5 mph44%29.85 "Hg31 mi
12:00 PM64 °FOvercast.3 mph41%29.86 "Hg31 mi
10:00 AM62 °FPartly sunny.2 mph37%29.87 "Hg19 mi
9:00 AM52 °FOvercast.2 mph55%29.91 "Hg22 mi
8:00 AM48 °FPartly sunny.2 mph60%29.92 "Hg25 mi
7:00 AM41 °FSunny.3 mph76%29.94 "Hg25 mi
6:00 AM40 °FClear.3 mph81%29.95 "Hg22 mi
3:00 AM42 °FClear.3 mph77%29.97 "Hg19 mi
1:00 AM42 °FClear.3 mph82%29.98 "Hg14 mi
12:00 AM43 °FClear.3 mph82%29.98 "Hg14 mi
10:00 PM
Fri, Apr 24
46 °FPassing clouds.2 mph74%29.97 "Hg16 mi
9:00 PM51 °FClear.2 mph62%29.93 "Hg17 mi
8:00 PM61 °FSunny.2 mph36%29.89 "Hg19 mi
7:00 PM64 °FSunny.3 mph34%29.88 "Hg19 mi
6:00 PM65 °FSunny.5 mph29%29.88 "Hg10 mi
4:00 PM65 °FSunny.5 mph22%29.89 "Hg2 mi
3:00 PM64 °FSunny.6 mph29%29.91 "Hg7 mi
2:00 PM63 °FPassing clouds.7 mph31%29.93 "Hg11 mi
Weather by CustomWeather, © 2015

See weather overviewHow to use our weather pages